カタログに戻る

STARLINK-36720

運用中通信SSO
NORAD 67655·PAYLOAD·🇺🇸 United States

打ち上げ Feb 2, 2026 から Vandenberg Space Force Base

Loading…

次のパス (今後24時間)

TLE

最新Source: CelesTrak SupGP

元期: Sep 15, 2026, 03:57 UTC

1 67655C 26022H   26258.16506944 -.00047547  00000+0 -14761-2 0  2586
2 67655  97.2842 289.8255 0000901 103.7193 157.7147 15.33461286    18

AllMySatでSTARLINK-36720をリアルタイム追跡

Download on the App Store